Powrót do katalogu

SUPERVIEW-1 03

AktywnyNaukaSSO
NORAD 43099·PAYLOAD·🇨🇳 China

Wystrzelony Jan 9, 2018 z Taiyuan Satellite Launch Center

Loading…

Następne Przeloty (najbliższe 24 godziny)

TLE

ŚwieżeSource: Space-Track

Epoka: Sep 14, 2026, 12:54 UTC

1 43099U 18002A   26257.53754009  .00014268  00000-0  32706-3 0  9993
2 43099  97.3086 342.3888 0043201 216.3725 143.4585 15.41855270482127

Śledź SUPERVIEW-1 03 w czasie rzeczywistym z AllMySat

Download on the App Store